Tracking 18856 objects as of 11-Dec-2017
HD Live streaming from Space Station
objects crossing your sky now

DTUSAT

Track DTUSAT now!
10-day predictions
DTUSAT is classified as:


NORAD ID: 27842
Int'l Code: 2003-031C
Perigee: 818.4 km
Apogee: 832.1 km
Inclination: 98.7 °
Period: 101.3 minutes
Semi major axis: 7196 km
RCS: 0.0583 m2 (small)
Launch date: June 30, 2003
Source: Denmark (DEN)
Launch site: PLESETSK MISSILE AND SPACE COMPLEX (PKMTR)
Uplink (MHz):
Downlink (MHz):
Beacon (MHz): 437.475
Mode: 2400bps AFSK CW
Call sign: OZ2DTU
Status: Inactive

aabbcc
Your satellite tracking list
Your tracking list is empty




NASA's NSSDC Master Catalog

Two Line Element Set (TLE):
1 27842U 03031C   17344.91424934 +.00000040 +00000-0 +37576-4 0  9991
2 27842 098.6830 350.0277 0009519 163.9550 196.1930 14.22137801749565
Source of the keplerian elements: AFSPC